Showing default

SPOT 3, 22823

Orbit data source: Space-Track

SPOT 3, 22823 is a payload satellite owned by CNES (FR) in SSO that was launched on Sun, 26 Sep 1993 UTC via an ARIANE 40 launch vehicle from the French Guiana (FRGUI). Payload-class satellites include a variety of spacecraft equipped with specific instruments for various scientific and technological missions. These include communications satellites like Starlink; space stations such as the ISS; scientific satellites like the Hubble; Earth observation satellites from companies like Planet Labs, Umbra, and HawkEye 360; GPS; miniature CubeSats for education and research; and military/defense satellites.

Loading next visibility...
Identifier
22823, 1993-061A
Orbit
SSO
Country
Flag of FRFR
Related business
Manufacturer
MMS/Toulouse
Mission
Non-operational Civil Imaging
Bus & Motor
SPOT, SPOT AOCS
Mass
1,900 kg wet, 1,750 kg dry
Launch date (UTC)
1993-09-26 (33 years ago)
Launch vehicle
ARIANE 40
Launch site
French Guiana (FRGUI)
Object type
Payload
Rocket body
Debris
Shape & HBR
Box + 1 Pan, 4.1 m
Radar Cross Section
12.991 m², Large (>1 m²)

Expand to show TLE details & history
Last TLE update: 11 hours ago

TLE from 11 hours ago
0 SPOT 3
1 22823U 93061A   26095.17596520  .00000233  00000-0  13033-3 0  9994
2 22823  98.8631 159.1044 0017789  92.5778 267.7435 14.20074066684213
Epoch: 2026-04-05T04:13Z
TLE epoch observation values (Epoch: 2026-04-05T04:13:23.393Z)
Latitude
0.00002°
Longitude
-97.72823°
Altitude
828.539 km
Speed
7.438 km/s
True Right ascension
10h 36m 25s
True Declination
0° 00' 00"
Sunlit
Object was in full shadow at epoch
Visualization orbit readout
Latitude
Unknown
Longitude
Unknown
Altitude
Unknown
Speed
Unknown
Apparent Right ascension
Unknown
Apparent Declination
Unknown
Sunlit
N/A
Visualization observer readout
Local Sidereal Time
21:14:49
Azimuth
Unknown
Elevation
Unknown
Doppler factor
Unknown
Orbital elements
Apogee altitude
835.077 km
Perigee altitude
809.459 km
Semi-major axis
7,200.405 km
Eccentricity
0.00178
Inclination
98.8631°
RAAN
159.1044°
Arg. of periapsis
92.5778°
True anomaly
267.53983°
Mean anomaly
267.7435°
Eccentric anomaly
267.64166°
Mean motion
3.55228 °/min
Orbital period
101.34 mins
BSTAR
0.00013033
Loading maneuver chart data...
Computing Atmospheric mass density...
Loading historical data...
Loading historical data...
Loading historical data...
Loading historical data...
Loading historical data...
Loading historical data...
Loading historical data...

Documentation

Showing up to 5 results
|